[Iaude] MPEC G149: 2024 GB3 [a=1.50,e=0.59,i=4.0,H=24.4]

mpec at cfa.harvard.edu mpec at cfa.harvard.edu
Thu Apr 11 07:17:33 EDT 2024


M.P.E.C. 2024-G149                               Issued 2024 April 11, 11:15 UT

     The Minor Planet Electronic Circulars contain information on unusual
         minor planets, routine data on comets and natural satellites,
         and occasional editorial announcements.  They are published
    on behalf of Division F of the International Astronomical Union by the
          Minor Planet Center, Smithsonian Astrophysical Observatory,
                          Cambridge, MA 02138, U.S.A.
			  
             Prepared using the Tamkin Foundation Computer Network

                              MPC at CFA.HARVARD.EDU
            URL https://www.minorplanetcenter.net/    ISSN 1523-6714

                                    2024 GB3                                    


Observations:
     K24G03B KC2024 04 09.80968 11 53 00.47 +41 29 03.4          19.8 GXEG149L51
     K24G03B KC2024 04 09.81284 11 52 56.40 +41 30 05.2          20.0 GXEG149L51
     K24G03B*KC2024 04 09.86701 11 51 46.71 +41 47 29.8          20.2 GXEG149L51
     K24G03B KC2024 04 09.87117 11 51 41.22 +41 48 49.7          20.3 GXEG149L51
     K24G03B KC2024 04 09.87517 11 51 36.04 +41 50 06.4          20.3 GXEG149L51
     K24G03B KC2024 04 09.89485611 51 15.163+41 56 10.90         20.9 GVEG149J95
     K24G03B KC2024 04 09.90019411 51 08.172+41 57 54.68         20.5 GVEG149J95
     K24G03B KC2024 04 10.04580411 47 53.078+42 45 23.36         20.6 GVEG149J95
     K24G03B KC2024 04 10.05302911 47 43.186+42 47 45.02         20.6 GVEG149J95
     K24G03B KC2024 04 10.45395911 38 00.670+45 03 56.80         21.03GVEG149I52
     K24G03B KC2024 04 10.45465111 37 59.550+45 04 11.20               VEG149I52
     K24G03B KC2024 04 10.45533611 37 58.410+45 04 24.80         20.82GVEG149I52
     K24G03B KC2024 04 10.45602811 37 57.440+45 04 38.80         20.33GVEG149I52
     K24G03B KC2024 04 10.79258 11 28 52.22 +47 04 58.3          20.0 GXEG149L51
     K24G03B KC2024 04 10.79639 11 28 45.23 +47 06 21.3          20.0 GXEG149L51
     K24G03B KC2024 04 10.80021 11 28 38.22 +47 07 44.5          19.9 GXEG149L51
     K24G03B KB2024 04 10.84937211 27 12.58 +47 25 30.0          19.9 GXEG149I93
     K24G03B KB2024 04 10.85226711 27 07.15 +47 26 33.9          19.9 GXEG149I93
     K24G03B KB2024 04 10.85515311 27 01.79 +47 27 38.2          19.9 GXEG149I93
     K24G03B 1C2024 04 10.89995 11 25 34.56 +47 43 49.9          19.5 VXEG149033
     K24G03B 1C2024 04 10.90053 11 25 33.45 +47 44 03.0          20.0 VXEG149033
     K24G03B 1C2024 04 10.91668 11 25 02.51 +47 49 56.9          20.3 VXEG149033
     K24G03B 1C2024 04 10.91725 11 25 01.41 +47 50 09.9          20.3 VXEG149033
     K24G03B 1C2024 04 10.91782 11 25 00.29 +47 50 22.0          20.2 VXEG149033
     K24G03B 1C2024 04 10.91840 11 24 59.17 +47 50 34.2          20.5 VXEG149033
     K24G03B 1C2024 04 10.91905 11 24 57.87 +47 50 48.7          20.5 VXEG149033
     K24G03B KC2024 04 11.14933711 17 32.82 +49 16 39.4          20.8 GXEG149858
     K24G03B KC2024 04 11.15609511 17 18.39 +49 19 12.1          20.4 GXEG149858
     K24G03B KC2024 04 11.16304511 17 03.44 +49 21 49.3          20.1 GXEG149858

Observer details:
033 Karl Schwarzschild Observatory, Tautenburg.  Observers S. Melnikov, C.
    Hogner, F. Ludwig, M. Hartmann, B. Stecklum.  Measurer B. Stecklum.
    1.34-m f/3 Schmidt + CCD.
858 Tebbutt Observatory, Edgewood.  Observer F. B. Zoltowski.  0.51-m f/8.1
    Schmidt-Cassegrain + CCD.
I52 Steward Observatory, Mt. Lemmon Station.  Observer G. J. Leonard.
    Measurers T. Beuden, V. F. Carvajal, D. Fay, J. B. Fazekas, D. C. Fuls, A.
    R. Gibbs, A. D. Grauer, H. Groeller, J. K. Hogan, R. A. Kowalski, S. M.
    Larson, G. J. Leonard, D. Rankin, R. L. Seaman, F. C. Shelly, K. W.
    Wierzchos.  1.0-m prime focus + CCD.
I93 St Pardon de Conques.  Observer F. Losse.  0.40-m f/3.7 reflector + CCD.
J95 Great Shefford.  Observer P. Birtwhistle.  0.41-m f/6.3 Schmidt-Cassegrain
    + CCD.
L51 MARGO, Nauchnyi.  Observer G. Borisov.  0.50-m f/1.9 reflector + CCD.

Orbital elements:
2024 GB3                                                 Earth MOID = 0.0296 AU
Epoch 2024 Mar. 31.0 TT = JDT 2460400.5                 Veres                   
M 324.56109              (2000.0)            P               Q                  
n   0.53882529     Peri.  243.18541     +0.40776502     +0.91145747             
a   1.4956756      Node    50.98642     -0.81085593     +0.38891975             
e   0.5879661      Incl.    4.02397     -0.41980989     +0.13411450             
P   1.83           H   24.44          G   0.15           U   8                  
Residuals in seconds of arc
240409 L51  1.4+  1.3-    240410 I52  0.3-  0.1+    240410 033  0.1+  0.3+
240409 L51  0.8+  0.4-    240410 I52  1.0-  0.3-    240410 033  0.7+  0.1+
240409 L51  0.8+  0.2+    240410 I52  0.2+  0.4-    240410 033  0.7+  0.6+
240409 L51  0.2-  0.1-    240410 L51  0.2-  0.5+    240410 033  0.4+  0.2+
240409 L51  0.1+  0.5-    240410 L51  0.1-  0.2+    240410 033  0.4+  0.3-
240409 J95  0.1-  0.3+    240410 L51  0.2+  0.0     240410 033  0.1-  0.1-
240409 J95  0.4-  0.1-    240410 I93  0.0   0.0     240411 858  0.2+  0.0
240410 J95  0.1+  0.0     240410 I93  0.1-  0.1-    240411 858  0.1+  0.2-
240410 J95  0.2+  0.0     240410 I93  0.5+  0.5+    240411 858  0.5-  0.2-
240410 I52  0.0   0.2-    240410 033  0.1+  0.1-

Ephemeris:
2024 GB3                 a,e,i = 1.50, 0.59, 4                   q = 0.6163
Date    TT    R. A. (2000) Decl.     Delta      r    Elong.  Phase     V
2024 03 12    13 17 51.4 +04 40 07   0.3593  1.3236   152.8    20.0    23.8
...
2024 03 27    13 10 06.9 +11 26 18   0.1916  1.1813   161.9    15.2    22.1
...
2024 04 04    12 49 44.9 +21 38 40   0.1133  1.1020   152.7    24.6    21.1
...
2024 04 10    11 48 59.0 +42 30 34   0.06512 1.0414   125.9    51.2    20.5
2024 04 11    11 22 27.3 +48 20 26   0.05931 1.0312   117.9    59.2    20.5
2024 04 12    10 42 12.7 +54 37 50   0.05470 1.0210   108.4    68.7    20.6
...
2024 04 18    03 40 28.8 +47 07 47   0.06285 0.9597    43.8   133.6    24.4
...
2024 04 26    02 18 44.7 +21 38 53   0.1292  0.8785     8.2   170.6
...
2024 05 11    01 58 27.7 +10 45 36   0.2957  0.7371    19.2   153.2    30.2

M. P. C. Staff               (C) Copyright 2024 MPC           M.P.E.C. 2024-G149





More information about the Iaude mailing list